This is the latest recevied weather packets stored in our database for station/object WD4IXD-WX. If no packets are shown the sender has not sent any weather packets the latest 10 day(s).
| Time | Temp. | Humidity | Pressure | Rain* | Wind** | Luminosity | Snow |
|---|---|---|---|---|---|---|---|
| 1777684504 | 0.56° C | 79% | 1021.7 hPa | 0 mm | - | 33 W/m² | - |
| 1777684204 | 0.56° C | 79% | 1021.7 hPa | 0 mm | - | 40 W/m² | - |
| 1777683903 | 0.56° C | 79% | 1021.7 hPa | 0 mm | - | 40 W/m² | - |
| 1777683604 | 0.56° C | 78% | 1021.6 hPa | 0 mm | - | 44 W/m² | - |
| 1777683303 | 0.56° C | 78% | 1021.6 hPa | 0 mm | - | 51 W/m² | - |
| 1777683004 | 1.11° C | 77% | 1021.6 hPa | 0 mm | - | 56 W/m² | - |
| 1777682704 | 1.11° C | 75% | 1021.6 hPa | 0 mm | - | 58 W/m² | - |
| 1777682404 | 1.67° C | 73% | 1021.6 hPa | 0 mm | - | 69 W/m² | - |
| 1777682104 | 2.22° C | 71% | 1021.6 hPa | 0 mm | - | 70 W/m² | - |
| 1777681804 | 2.22° C | 67% | 1021.6 hPa | 0 mm | - | 56 W/m² | - |
| 1777681504 | 2.22° C | 66% | 1021.5 hPa | 0 mm | - | 60 W/m² | - |
| 1777681204 | 2.78° C | 64% | 1021.4 hPa | 0 mm | - | 63 W/m² | - |
| 1777680904 | 2.78° C | 62% | 1021.3 hPa | 0 mm | - | 58 W/m² | - |
| 1777680604 | 3.33° C | 61% | 1021.3 hPa | 0 mm | - | 53 W/m² | - |
| 1777680304 | 3.89° C | 61% | 1021.2 hPa | 0 mm | - | 60 W/m² | - |
| 1777680004 | 3.89° C | 63% | 1021.1 hPa | 0 mm | - | 374 W/m² | - |
| 1777679704 | 3.89° C | 62% | 1021.1 hPa | 0 mm | - | 381 W/m² | - |
| 1777679404 | 3.89° C | 62% | 1021 hPa | 0 mm | - | 399 W/m² | - |
| 1777679104 | 3.89° C | 60% | 1021 hPa | 0 mm | - | 418 W/m² | - |
| 1777678804 | 3.33° C | 62% | 1021 hPa | 0 mm | - | 434 W/m² | - |
| 1777678504 | 3.33° C | 67% | 1021 hPa | 0 mm | - | 454 W/m² | - |
| 1777678204 | 2.78° C | 68% | 1021 hPa | 0 mm | - | 478 W/m² | - |
| 1777677904 | 2.78° C | 68% | 1021 hPa | 0 mm | - | 513 W/m² | - |
| 1777677605 | 2.78° C | 67% | 1021 hPa | 0 mm | - | 550 W/m² | - |
| 1777677304 | 3.33° C | 68% | 1020.9 hPa | 0 mm | - | 587 W/m² | - |
* Rain latest hour (hover to see other rain measurements)
** Current wind speed in m/s (hover to see current wind gust speed)